Weather in Berezovskiy

Russia / Kemerovo Oblast     55°40′09″N   86°16′28″E
temp.,
°C
wind,
m/s
gust,
m/s
humid.,
%
clouds,
%
prec.,
mm/h
press.,
hPa
HPBL,
m
17 may, tue
tue1701:00+14s265518 0.0 1010109
04:00+12sw2380100 0.7 101160
07:00+14sse257976 0.8 1010131
10:00+21ssw474597 0.0 1009645
13:00+26ssw593341 0.0 10082904
16:00+26sw593040 0.0 10063079
19:00+25ssw593572 0.0 10051324
22:00+22s514425 0.0 1006588
18 may, wed
wed1801:00+20ssw51546100 0.0 1005566
04:00+16ssw2560100 0.0 100792
07:00+16ssw286429 0.0 1008294
10:00+21wsw3942100 0.0 10091152
13:00+23w5113672 0.0 10101997
16:00+24wsw5932100 0.0 10102325
19:00+22wsw3539100 0.0 1010646
22:00+16ssw1156100 0.0 101211
19 may, thu
thu1901:00+15e1157100 0.0 101111
04:00+14se1162100 0.0 101011
07:00+16ene1262100 0.1 100868
10:00+22sse3849100 0.3 1005425
13:00+28s5933100 0.3 10031475
16:00+26w51038100 0.0 10022180
19:00+21wsw712661 1.3 10031167
22:00+17sw4135782 0.1 1006590
20 may, fri
fri2001:00+15sw51245100 0.1 10081460
04:00+13sw612534 0.1 1009997
07:00+12sw7145666 0.1 10111354
10:00+17sw713431 0.0 10121936
13:00+19wsw812317 0.0 10132872
16:00+21wsw711305 0.0 10122882
19:00+20sw5103777 0.0 10132473
22:00+14ssw2754100 0.0 1013158
21 may, sat
sat2101:00+11sw116470 0.0 101414
04:00+10s356730 0.0 101396
07:00+13s295877 0.0 1013268
10:00+20s473752 0.0 1011717
13:00+24s45305 0.0 10091238
16:00+26sse34275 0.0 10071426
19:00+25se35360 0.0 1005502
22:00+17ene2257100 0.0 100416